Time,TemperatureF,DewpointF,PressureIn,WindDirection,WindDirectionDegrees,WindSpeedMPH,WindSpeedGustMPH,Humidity,HourlyPrecipIn,Conditions,Clouds,dailyrainin,SoftwareType,DateUTC
2013-05-23 00:01:00,72.4,66.9,29.90,ENE,58,3.0,5.0,83,0.00,,---,0.00,VWS V14.01,2013-05-23 05:01:00,
2013-05-23 00:06:00,72.4,66.9,29.90,North,9,1.0,5.0,83,0.00,,---,0.00,VWS V14.01,2013-05-23 05:06:00,
2013-05-23 00:11:00,72.4,66.9,29.90,ESE,118,4.0,6.0,83,0.00,,---,0.00,VWS V14.01,2013-05-23 05:11:00,
2013-05-23 00:16:00,72.4,66.9,29.90,ESE,108,5.0,6.0,83,0.00,,---,0.00,VWS V14.01,2013-05-23 05:16:00,
2013-05-23 00:21:00,72.4,66.9,29.90,NE,46,3.0,6.0,83,0.00,,---,0.00,VWS V14.01,2013-05-23 05:21:00,
2013-05-23 00:26:00,72.4,66.9,29.90,ENE,73,5.0,6.0,83,0.00,,---,0.00,VWS V14.01,2013-05-23 05:26:00,
2013-05-23 00:31:00,72.4,66.9,29.90,East,84,2.0,5.0,83,0.00,,---,0.00,VWS V14.01,2013-05-23 05:31:00,
2013-05-23 00:36:00,72.4,66.9,29.91,ENE,78,3.0,6.0,83,0.00,,---,0.00,VWS V14.01,2013-05-23 05:36:00,
2013-05-23 00:41:00,72.2,66.8,29.91,West,264,2.0,6.0,83,0.00,,---,0.00,VWS V14.01,2013-05-23 05:41:00,
2013-05-23 00:46:00,72.0,66.9,29.91,North,360,2.0,6.0,84,0.00,,---,0.00,VWS V14.01,2013-05-23 05:46:00,
2013-05-23 00:51:00,71.7,66.6,29.91,ENE,68,3.0,6.0,84,0.00,,---,0.00,VWS V14.01,2013-05-23 05:51:00,
2013-05-23 00:56:00,71.6,66.5,29.91,East,91,5.0,6.0,84,0.00,,---,0.00,VWS V14.01,2013-05-23 05:56:00,
2013-05-23 01:01:00,71.6,66.5,29.91,East,88,1.0,2.0,84,0.00,,---,0.00,VWS V14.01,2013-05-23 06:01:00,
2013-05-23 01:06:00,71.5,66.4,29.91,South,174,3.0,6.0,84,0.00,,---,0.00,VWS V14.01,2013-05-23 06:06:00,
2013-05-23 01:11:00,71.4,66.7,29.90,ENE,75,3.0,6.0,85,0.00,,---,0.00,VWS V14.01,2013-05-23 06:11:00,
2013-05-23 01:16:00,71.4,66.7,29.90,East,98,4.0,6.0,85,0.00,,---,0.00,VWS V14.01,2013-05-23 06:16:00,
2013-05-23 01:21:00,71.4,66.7,29.90,East,84,3.0,6.0,85,0.00,,---,0.00,VWS V14.01,2013-05-23 06:21:00,
2013-05-23 01:26:00,71.4,66.7,29.90,East,97,3.0,6.0,85,0.00,,---,0.00,VWS V14.01,2013-05-23 06:26:00,
2013-05-23 01:31:00,71.4,66.7,29.90,East,98,3.0,6.0,85,0.00,,---,0.00,VWS V14.01,2013-05-23 06:31:00,
2013-05-23 01:36:00,71.4,66.7,29.89,East,79,3.0,8.0,85,0.00,,---,0.00,VWS V14.01,2013-05-23 06:36:00,
2013-05-23 01:41:00,71.2,66.5,29.89,East,96,3.0,8.0,85,0.00,,---,0.00,VWS V14.01,2013-05-23 06:41:00,
2013-05-23 01:46:00,71.1,66.4,29.89,ENE,65,3.0,8.0,85,0.00,,---,0.00,VWS V14.01,2013-05-23 06:46:00,
2013-05-23 01:51:00,71.0,66.3,29.89,ESE,115,2.0,8.0,85,0.00,,---,0.00,VWS V14.01,2013-05-23 06:51:00,
2013-05-23 01:56:00,70.9,66.5,29.89,ENE,74,0.0,8.0,86,0.00,,---,0.00,VWS V14.01,2013-05-23 06:56:00,
2013-05-23 02:01:00,70.7,66.3,29.89,ENE,78,0.0,2.0,86,0.00,,---,0.00,VWS V14.01,2013-05-23 07:01:00,
2013-05-23 02:06:00,70.5,66.1,29.89,East,96,2.0,4.0,86,0.00,,---,0.00,VWS V14.01,2013-05-23 07:06:00,
2013-05-23 02:11:00,70.4,66.3,29.88,NNE,16,1.0,5.0,87,0.00,,---,0.00,VWS V14.01,2013-05-23 07:11:00,
2013-05-23 02:16:00,70.5,66.4,29.88,NNE,16,2.0,6.0,87,0.00,,---,0.00,VWS V14.01,2013-05-23 07:16:00,
2013-05-23 02:21:00,70.5,66.4,29.88,SE,131,4.0,6.0,87,0.00,,---,0.00,VWS V14.01,2013-05-23 07:21:00,
2013-05-23 02:26:00,70.6,66.6,29.88,East,89,3.0,7.0,87,0.00,,---,0.00,VWS V14.01,2013-05-23 07:26:00,
2013-05-23 02:31:00,70.7,66.3,29.88,SSE,152,4.0,6.0,86,0.00,,---,0.00,VWS V14.01,2013-05-23 07:31:00,
2013-05-23 02:36:00,70.5,66.1,29.88,ESE,108,3.0,6.0,86,0.00,,---,0.00,VWS V14.01,2013-05-23 07:36:00,
2013-05-23 02:41:00,70.2,65.8,29.87,East,101,2.0,6.0,86,0.00,,---,0.00,VWS V14.01,2013-05-23 07:41:00,
2013-05-23 02:46:00,70.3,66.2,29.87,East,94,4.0,7.0,87,0.00,,---,0.00,VWS V14.01,2013-05-23 07:46:00,
2013-05-23 02:51:00,70.4,66.3,29.87,SE,138,2.0,7.0,87,0.00,,---,0.00,VWS V14.01,2013-05-23 07:51:00,
2013-05-23 02:56:00,70.5,66.4,29.87,SSE,151,2.0,7.0,87,0.00,,---,0.00,VWS V14.01,2013-05-23 07:56:00,
2013-05-23 03:01:00,70.5,66.4,29.87,SE,134,4.0,5.0,87,0.00,,---,0.00,VWS V14.01,2013-05-23 08:01:00,
2013-05-23 03:06:00,70.8,66.7,29.87,SE,130,5.0,6.0,87,0.00,,---,0.00,VWS V14.01,2013-05-23 08:06:00,
2013-05-23 03:11:00,71.0,66.9,29.87,ESE,103,5.0,6.0,87,0.00,,---,0.00,VWS V14.01,2013-05-23 08:11:00,
2013-05-23 03:16:00,71.0,66.9,29.86,ESE,108,3.0,8.0,87,0.00,,---,0.00,VWS V14.01,2013-05-23 08:16:00,
2013-05-23 03:21:00,70.8,66.7,29.86,ESE,111,7.0,8.0,87,0.00,,---,0.00,VWS V14.01,2013-05-23 08:21:00,
2013-05-23 03:26:00,70.7,66.7,29.86,East,94,5.0,9.0,87,0.00,,---,0.00,VWS V14.01,2013-05-23 08:26:00,
2013-05-23 03:31:00,70.7,66.7,29.86,ESE,120,5.0,5.0,87,0.00,,---,0.00,VWS V14.01,2013-05-23 08:31:00,
2013-05-23 03:36:00,70.7,66.7,29.87,ESE,117,2.0,5.0,87,0.00,,---,0.00,VWS V14.01,2013-05-23 08:36:00,
2013-05-23 03:41:00,70.6,66.6,29.88,ESE,109,1.0,5.0,87,0.00,,---,0.00,VWS V14.01,2013-05-23 08:41:00,
2013-05-23 03:46:00,70.4,66.0,29.88,East,101,1.0,5.0,86,0.00,,---,0.00,VWS V14.01,2013-05-23 08:46:00,
2013-05-23 03:51:00,70.5,66.4,29.88,East,89,3.0,5.0,87,0.00,,---,0.00,VWS V14.01,2013-05-23 08:51:00,
2013-05-23 03:56:00,70.4,66.0,29.88,ESE,106,6.0,6.0,86,0.00,,---,0.00,VWS V14.01,2013-05-23 08:56:00,
2013-05-23 04:01:00,70.4,66.0,29.88,East,86,1.0,1.0,86,0.00,,---,0.00,VWS V14.01,2013-05-23 09:01:00,
2013-05-23 04:06:00,70.3,66.2,29.88,East,96,2.0,4.0,87,0.00,,---,0.00,VWS V14.01,2013-05-23 09:06:00,
2013-05-23 04:11:00,70.2,66.2,29.87,SE,130,4.0,6.0,87,0.00,,---,0.00,VWS V14.01,2013-05-23 09:11:00,
2013-05-23 04:16:00,69.9,66.2,29.87,ESE,108,4.0,7.0,88,0.00,,---,0.00,VWS V14.01,2013-05-23 09:16:00,
2013-05-23 04:21:00,69.8,66.1,29.88,ESE,121,2.0,7.0,88,0.00,,---,0.00,VWS V14.01,2013-05-23 09:21:00,
2013-05-23 04:26:00,69.7,66.3,29.88,ESE,114,3.0,7.0,89,0.00,,---,0.00,VWS V14.01,2013-05-23 09:26:00,
2013-05-23 04:31:00,69.7,66.3,29.88,East,95,2.0,3.0,89,0.00,,---,0.00,VWS V14.01,2013-05-23 09:31:00,
2013-05-23 04:36:00,69.9,66.5,29.89,ENE,75,2.0,4.0,89,0.00,,---,0.00,VWS V14.01,2013-05-23 09:36:00,
2013-05-23 04:41:00,69.9,66.5,29.89,East,89,0.0,4.0,89,0.00,,---,0.00,VWS V14.01,2013-05-23 09:41:00,
2013-05-23 04:46:00,69.8,66.4,29.89,East,99,2.0,4.0,89,0.00,,---,0.00,VWS V14.01,2013-05-23 09:46:00,
2013-05-23 04:51:00,69.8,66.4,29.89,East,87,1.0,4.0,89,0.00,,---,0.00,VWS V14.01,2013-05-23 09:51:00,
2013-05-23 04:56:00,69.7,66.3,29.89,East,90,1.0,4.0,89,0.00,,---,0.00,VWS V14.01,2013-05-23 09:56:00,
2013-05-23 05:01:00,69.6,66.2,29.89,East,91,2.0,3.0,89,0.00,,---,0.00,VWS V14.01,2013-05-23 10:01:00,
2013-05-23 05:06:00,69.5,66.1,29.89,East,90,0.0,3.0,89,0.00,,---,0.00,VWS V14.01,2013-05-23 10:06:00,
2013-05-23 05:11:00,69.4,66.3,29.89,East,91,4.0,4.0,90,0.00,,---,0.00,VWS V14.01,2013-05-23 10:11:00,
2013-05-23 05:16:00,69.4,66.3,29.89,ESE,120,2.0,5.0,90,0.00,,---,0.00,VWS V14.01,2013-05-23 10:16:00,
2013-05-23 05:21:00,69.3,66.2,29.90,East,80,1.0,5.0,90,0.00,,---,0.00,VWS V14.01,2013-05-23 10:21:00,
2013-05-23 05:26:00,69.2,66.2,29.90,NE,35,1.0,5.0,90,0.00,,---,0.00,VWS V14.01,2013-05-23 10:26:00,
2013-05-23 05:31:00,69.0,66.3,29.91,East,101,1.0,1.0,91,0.00,,---,0.00,VWS V14.01,2013-05-23 10:31:00,
2013-05-23 05:36:00,68.7,66.0,29.91,NNE,15,0.0,2.0,91,0.00,,---,0.00,VWS V14.01,2013-05-23 10:36:00,
2013-05-23 05:41:00,68.4,65.7,29.92,NNE,13,2.0,3.0,91,0.00,,---,0.00,VWS V14.01,2013-05-23 10:41:00,
2013-05-23 05:46:00,68.4,66.0,29.92,North,9,0.0,3.0,92,0.00,,---,0.00,VWS V14.01,2013-05-23 10:46:00,
2013-05-23 05:51:00,68.4,66.0,29.92,ENE,77,2.0,3.0,92,0.00,,---,0.00,VWS V14.01,2013-05-23 10:51:00,
2013-05-23 05:56:00,68.5,66.1,29.92,ENE,60,3.0,6.0,92,0.00,,---,0.00,VWS V14.01,2013-05-23 10:56:00,
2013-05-23 06:01:00,68.5,66.1,29.92,NE,40,1.0,3.0,92,0.00,,---,0.00,VWS V14.01,2013-05-23 11:01:00,
2013-05-23 06:06:00,68.5,66.1,29.92,NNE,22,2.0,4.0,92,0.00,,---,0.00,VWS V14.01,2013-05-23 11:06:00,
2013-05-23 06:11:00,68.4,65.7,29.92,East,89,1.0,4.0,91,0.00,,---,0.00,VWS V14.01,2013-05-23 11:11:00,
2013-05-23 06:16:00,68.4,66.0,29.91,East,81,2.0,4.0,92,0.00,,---,0.00,VWS V14.01,2013-05-23 11:16:00,
2013-05-23 06:21:00,68.5,66.1,29.91,SE,140,1.0,4.0,92,0.00,,---,0.00,VWS V14.01,2013-05-23 11:21:00,
2013-05-23 06:26:00,68.7,66.6,29.91,ESE,108,5.0,6.0,93,0.00,,---,0.00,VWS V14.01,2013-05-23 11:26:00,
2013-05-23 06:31:00,69.0,66.9,29.90,SE,142,6.0,8.0,93,0.00,,---,0.00,VWS V14.01,2013-05-23 11:31:00,
2013-05-23 06:36:00,69.1,66.7,29.89,ESE,103,8.0,9.0,92,0.00,,---,0.00,VWS V14.01,2013-05-23 11:36:00,
2013-05-23 06:41:00,69.1,67.0,29.89,East,101,6.0,9.0,93,0.00,,---,0.00,VWS V14.01,2013-05-23 11:41:00,
2013-05-23 06:46:00,69.3,67.2,29.90,ESE,119,5.0,9.0,93,0.00,,---,0.00,VWS V14.01,2013-05-23 11:46:00,
2013-05-23 06:51:00,69.5,67.4,29.90,SE,131,2.0,9.0,93,0.00,,---,0.00,VWS V14.01,2013-05-23 11:51:00,
2013-05-23 06:56:00,69.7,67.6,29.90,SE,126,3.0,9.0,93,0.00,,---,0.00,VWS V14.01,2013-05-23 11:56:00,
2013-05-23 07:01:00,69.9,67.8,29.90,SE,134,3.0,3.0,93,0.00,,---,0.00,VWS V14.01,2013-05-23 12:01:00,
2013-05-23 07:06:00,70.1,68.0,29.90,SSE,153,3.0,6.0,93,0.00,,---,0.00,VWS V14.01,2013-05-23 12:06:00,
2013-05-23 07:11:00,70.0,67.6,29.90,SSE,155,3.0,6.0,92,0.00,,---,0.00,VWS V14.01,2013-05-23 12:11:00,
2013-05-23 07:16:00,69.8,67.4,29.90,ESE,118,4.0,7.0,92,0.00,,---,0.00,VWS V14.01,2013-05-23 12:16:00,
2013-05-23 07:21:00,69.8,67.4,29.90,ESE,115,3.0,7.0,92,0.00,,---,0.00,VWS V14.01,2013-05-23 12:21:00,
2013-05-23 07:26:00,69.9,67.8,29.90,ESE,121,4.0,7.0,93,0.00,,---,0.00,VWS V14.01,2013-05-23 12:26:00,
2013-05-23 07:31:00,70.2,67.8,29.91,SE,139,2.0,4.0,92,0.00,,---,0.00,VWS V14.01,2013-05-23 12:31:00,
2013-05-23 07:36:00,70.5,68.1,29.91,East,84,3.0,4.0,92,0.00,,---,0.00,VWS V14.01,2013-05-23 12:36:00,
2013-05-23 07:41:00,70.9,68.5,29.91,East,86,3.0,5.0,92,0.00,,---,0.00,VWS V14.01,2013-05-23 12:41:00,
2013-05-23 07:46:00,71.2,68.8,29.91,East,89,2.0,5.0,92,0.00,,---,0.00,VWS V14.01,2013-05-23 12:46:00,
2013-05-23 07:51:00,71.5,69.1,29.91,ESE,102,2.0,5.0,92,0.00,,---,0.00,VWS V14.01,2013-05-23 12:51:00,
2013-05-23 07:56:00,71.6,68.8,29.91,East,100,1.0,5.0,91,0.00,,---,0.00,VWS V14.01,2013-05-23 12:56:00,
2013-05-23 08:01:00,71.7,68.6,29.91,SE,132,4.0,4.0,90,0.00,,---,0.00,VWS V14.01,2013-05-23 13:01:00,
2013-05-23 08:06:00,71.7,68.6,29.91,East,79,1.0,4.0,90,0.00,,---,0.00,VWS V14.01,2013-05-23 13:06:00,
2013-05-23 08:11:00,71.7,68.6,29.92,SE,125,1.0,4.0,90,0.00,,---,0.00,VWS V14.01,2013-05-23 13:11:00,
2013-05-23 08:16:00,71.7,68.6,29.93,ENE,77,2.0,4.0,90,0.00,,---,0.00,VWS V14.01,2013-05-23 13:16:00,
2013-05-23 08:21:00,71.9,69.1,29.93,East,87,0.0,4.0,91,0.00,,---,0.00,VWS V14.01,2013-05-23 13:21:00,
2013-05-23 08:26:00,72.1,69.3,29.93,ENE,76,0.0,4.0,91,0.00,,---,0.00,VWS V14.01,2013-05-23 13:26:00,
2013-05-23 08:31:00,72.5,69.4,29.94,East,87,1.0,1.0,90,0.00,,---,0.00,VWS V14.01,2013-05-23 13:31:00,
2013-05-23 08:36:00,72.7,69.6,29.94,East,89,1.0,3.0,90,0.00,,---,0.00,VWS V14.01,2013-05-23 13:36:00,
2013-05-23 08:41:00,73.0,69.9,29.95,East,94,0.0,3.0,90,0.00,,---,0.00,VWS V14.01,2013-05-23 13:41:00,
2013-05-23 08:46:00,73.3,69.9,29.95,East,90,0.0,3.0,89,0.00,,---,0.00,VWS V14.01,2013-05-23 13:46:00,
2013-05-23 08:51:00,73.6,69.8,29.95,SE,129,1.0,3.0,88,0.00,,---,0.00,VWS V14.01,2013-05-23 13:51:00,
2013-05-23 08:56:00,73.8,70.4,29.96,East,95,1.0,3.0,89,0.00,,---,0.00,VWS V14.01,2013-05-23 13:56:00,
2013-05-23 09:01:00,74.1,70.3,29.96,ESE,110,2.0,2.0,88,0.00,,---,0.00,VWS V14.01,2013-05-23 14:01:00,
2013-05-23 09:06:00,74.4,70.3,29.97,South,191,0.0,2.0,87,0.00,,---,0.00,VWS V14.01,2013-05-23 14:06:00,
2013-05-23 09:11:00,74.4,70.3,29.97,SSE,157,2.0,3.0,87,0.00,,---,0.00,VWS V14.01,2013-05-23 14:11:00,
2013-05-23 09:16:00,74.4,70.3,29.98,SSE,166,0.0,3.0,87,0.00,,---,0.00,VWS V14.01,2013-05-23 14:16:00,
2013-05-23 09:20:00,74.6,70.1,29.98,SE,128,0.0,3.0,86,0.00,,---,0.00,VWS V14.01,2013-05-23 14:20:00,
2013-05-23 09:25:00,74.8,70.3,29.99,ESE,106,1.0,3.0,86,0.00,,---,0.00,VWS V14.01,2013-05-23 14:25:00,
2013-05-23 09:30:00,74.8,70.7,29.99,ESE,115,0.0,3.0,87,0.00,,---,0.00,VWS V14.01,2013-05-23 14:30:00,
2013-05-23 09:35:00,74.8,70.7,29.99,ESE,108,0.0,1.0,87,0.00,,---,0.00,VWS V14.01,2013-05-23 14:35:00,
2013-05-23 09:40:00,75.0,70.9,29.99,East,79,1.0,2.0,87,0.00,,---,0.00,VWS V14.01,2013-05-23 14:40:00,
2013-05-23 09:45:00,75.2,70.7,30.00,ESE,103,0.0,2.0,86,0.00,,---,0.00,VWS V14.01,2013-05-23 14:45:00,
2013-05-23 09:50:00,75.6,70.8,30.00,East,86,0.0,2.0,85,0.00,,---,0.00,VWS V14.01,2013-05-23 14:50:00,
2013-05-23 09:55:00,75.9,70.7,30.00,East,98,0.0,2.0,84,0.00,,---,0.00,VWS V14.01,2013-05-23 14:55:00,
2013-05-23 10:00:00,76.1,70.9,30.01,ESE,103,1.0,2.0,84,0.00,,---,0.00,VWS V14.01,2013-05-23 15:00:00,
2013-05-23 10:05:00,76.2,70.7,30.01,ESE,114,1.0,2.0,83,0.00,,---,0.00,VWS V14.01,2013-05-23 15:05:00,
2013-05-23 10:10:00,76.5,71.3,30.01,East,100,0.0,2.0,84,0.00,,---,0.00,VWS V14.01,2013-05-23 15:10:00,
2013-05-23 10:15:00,77.1,71.5,30.01,SE,128,1.0,2.0,83,0.00,,---,0.00,VWS V14.01,2013-05-23 15:15:00,
2013-05-23 10:20:00,77.3,71.4,30.02,East,82,0.0,2.0,82,0.00,,---,0.00,VWS V14.01,2013-05-23 15:20:00,
2013-05-23 10:25:00,77.8,71.5,30.01,East,101,3.0,3.0,81,0.00,,---,0.00,VWS V14.01,2013-05-23 15:25:00,
2013-05-23 10:30:00,77.5,71.2,30.01,ENE,77,2.0,4.0,81,0.00,,---,0.00,VWS V14.01,2013-05-23 15:30:00,
2013-05-23 10:35:00,77.4,71.1,30.02,ESE,107,2.0,2.0,81,0.00,,---,0.00,VWS V14.01,2013-05-23 15:35:00,
2013-05-23 10:40:00,77.1,71.2,30.02,SE,143,1.0,3.0,82,0.00,,---,0.00,VWS V14.01,2013-05-23 15:40:00,
2013-05-23 10:45:00,76.9,71.0,30.02,ESE,117,1.0,4.0,82,0.00,,---,0.00,VWS V14.01,2013-05-23 15:45:00,
2013-05-23 10:50:00,77.0,71.1,30.03,ESE,105,1.0,4.0,82,0.00,,---,0.00,VWS V14.01,2013-05-23 15:50:00,
2013-05-23 10:55:00,77.3,71.0,30.03,ESE,105,2.0,4.0,81,0.00,,---,0.00,VWS V14.01,2013-05-23 15:55:00,
2013-05-23 11:00:00,77.7,71.4,30.03,SE,131,1.0,4.0,81,0.00,,---,0.00,VWS V14.01,2013-05-23 16:00:00,
2013-05-23 11:05:00,78.2,71.5,30.03,East,101,3.0,3.0,80,0.00,,---,0.00,VWS V14.01,2013-05-23 16:05:00,
2013-05-23 11:10:00,78.3,71.3,30.02,SE,124,0.0,3.0,79,0.00,,---,0.00,VWS V14.01,2013-05-23 16:10:00,
2013-05-23 11:15:00,78.3,71.6,30.02,SE,124,3.0,4.0,80,0.00,,---,0.00,VWS V14.01,2013-05-23 16:15:00,
2013-05-23 11:20:00,78.7,71.6,30.02,SE,124,3.0,4.0,79,0.00,,---,0.00,VWS V14.01,2013-05-23 16:20:00,
2013-05-23 11:25:00,79.4,71.6,30.02,ESE,107,4.0,4.0,77,0.00,,---,0.00,VWS V14.01,2013-05-23 16:25:00,
2013-05-23 11:30:00,79.9,72.4,30.02,SE,139,2.0,4.0,78,0.00,,---,0.00,VWS V14.01,2013-05-23 16:30:00,
2013-05-23 11:35:00,80.4,71.8,30.03,SSE,159,2.0,4.0,75,0.00,,---,0.00,VWS V14.01,2013-05-23 16:35:00,
2013-05-23 11:40:00,80.9,72.6,30.03,SSW,201,2.0,4.0,76,0.00,,---,0.00,VWS V14.01,2013-05-23 16:40:00,
2013-05-23 11:45:00,81.4,71.9,30.03,South,177,2.0,4.0,73,0.00,,---,0.00,VWS V14.01,2013-05-23 16:45:00,
2013-05-23 11:50:00,82.1,72.2,30.04,SSW,197,1.0,4.0,72,0.00,,---,0.00,VWS V14.01,2013-05-23 16:50:00,
2013-05-23 11:55:00,83.0,72.6,30.04,SW,218,3.0,4.0,71,0.00,,---,0.00,VWS V14.01,2013-05-23 16:55:00,
2013-05-23 12:00:00,82.9,72.1,30.04,SSW,211,1.0,4.0,70,0.00,,---,0.00,VWS V14.01,2013-05-23 17:00:00,
2013-05-23 12:05:00,82.6,71.8,30.04,South,169,3.0,4.0,70,0.00,,---,0.00,VWS V14.01,2013-05-23 17:05:00,
2013-05-23 12:10:00,82.3,72.0,30.05,SE,139,1.0,4.0,71,0.00,,---,0.00,VWS V14.01,2013-05-23 17:10:00,
2013-05-23 12:15:00,82.8,72.4,30.05,South,172,0.0,4.0,71,0.00,,---,0.00,VWS V14.01,2013-05-23 17:15:00,
2013-05-23 12:20:00,84.3,73.5,30.05,SE,131,2.0,4.0,70,0.00,,---,0.00,VWS V14.01,2013-05-23 17:20:00,
2013-05-23 12:25:00,84.6,73.3,30.05,ESE,114,0.0,4.0,69,0.00,,---,0.00,VWS V14.01,2013-05-23 17:25:00,
2013-05-23 12:30:00,84.9,73.2,30.04,East,83,0.0,4.0,68,0.00,,---,0.00,VWS V14.01,2013-05-23 17:30:00,
2013-05-23 12:35:00,85.3,73.6,30.04,ENE,77,0.0,1.0,68,0.00,,---,0.00,VWS V14.01,2013-05-23 17:35:00,
2013-05-23 12:40:00,86.0,73.8,30.03,East,83,1.0,2.0,67,0.00,,---,0.00,VWS V14.01,2013-05-23 17:40:00,
2013-05-23 12:45:00,85.9,73.2,30.03,ENE,73,2.0,3.0,66,0.00,,---,0.00,VWS V14.01,2013-05-23 17:45:00,
2013-05-23 12:50:00,85.0,73.7,30.03,East,100,0.0,3.0,69,0.00,,---,0.00,VWS V14.01,2013-05-23 17:50:00,
2013-05-23 12:55:00,84.9,73.6,30.04,North,1,0.0,3.0,69,0.00,,---,0.00,VWS V14.01,2013-05-23 17:55:00,
2013-05-23 13:00:00,84.1,73.3,30.04,NW,318,2.0,9.0,70,0.00,,---,0.00,VWS V14.01,2013-05-23 18:00:00,
2013-05-23 13:05:00,80.8,71.3,30.03,NW,322,1.0,7.0,73,0.00,,---,0.00,VWS V14.01,2013-05-23 18:05:00,
2013-05-23 13:10:00,79.0,71.2,30.03,SW,235,3.0,7.0,77,0.00,,---,0.00,VWS V14.01,2013-05-23 18:10:00,
2013-05-23 13:15:00,78.5,71.4,30.02,South,169,1.0,7.0,79,0.00,,---,0.00,VWS V14.01,2013-05-23 18:15:00,
2013-05-23 13:20:00,78.2,71.2,30.02,NNW,338,0.0,7.0,79,0.00,,---,0.00,VWS V14.01,2013-05-23 18:20:00,
2013-05-23 13:25:00,78.2,71.9,30.01,East,92,1.0,7.0,81,0.00,,---,0.00,VWS V14.01,2013-05-23 18:25:00,
2013-05-23 13:30:00,78.7,72.0,30.01,WSW,249,1.0,7.0,80,0.00,,---,0.00,VWS V14.01,2013-05-23 18:30:00,
2013-05-23 13:35:00,79.6,72.9,30.01,North,11,2.0,7.0,80,0.00,,---,0.00,VWS V14.01,2013-05-23 18:35:00,
2013-05-23 13:40:00,79.7,72.6,30.00,ENE,74,0.0,7.0,79,0.00,,---,0.00,VWS V14.01,2013-05-23 18:40:00,
2013-05-23 13:45:00,80.2,72.7,30.00,NNE,26,0.0,8.0,78,0.00,,---,0.00,VWS V14.01,2013-05-23 18:45:00,
2013-05-23 13:50:00,80.9,73.4,29.99,NNE,32,4.0,8.0,78,0.00,,---,0.00,VWS V14.01,2013-05-23 18:50:00,
2013-05-23 13:55:00,81.2,73.3,29.99,East,100,2.0,8.0,77,0.00,,---,0.00,VWS V14.01,2013-05-23 18:55:00,
2013-05-23 14:00:00,81.1,73.6,29.99,ESE,121,0.0,8.0,78,0.00,,---,0.00,VWS V14.01,2013-05-23 19:00:00,
2013-05-23 14:05:00,81.9,74.0,29.98,ENE,63,2.0,4.0,77,0.00,,---,0.00,VWS V14.01,2013-05-23 19:05:00,
2013-05-23 14:10:00,82.7,74.0,29.98,ESE,122,2.0,4.0,75,0.00,,---,0.00,VWS V14.01,2013-05-23 19:10:00,
2013-05-23 14:15:00,83.4,74.2,29.98,NNW,343,2.0,4.0,74,0.00,,---,0.00,VWS V14.01,2013-05-23 19:15:00,
2013-05-23 14:20:00,83.5,74.3,29.97,NNE,23,2.0,4.0,74,0.00,,---,0.00,VWS V14.01,2013-05-23 19:20:00,
2013-05-23 14:25:00,83.4,74.2,29.97,ENE,75,1.0,5.0,74,0.00,,---,0.00,VWS V14.01,2013-05-23 19:25:00,
2013-05-23 14:30:00,83.9,74.7,29.97,NNE,33,0.0,5.0,74,0.00,,---,0.00,VWS V14.01,2013-05-23 19:30:00,
2013-05-23 14:35:00,85.2,74.3,29.98,East,81,2.0,6.0,70,0.00,,---,0.00,VWS V14.01,2013-05-23 19:35:00,
2013-05-23 14:40:00,85.4,74.5,29.98,ESE,121,0.0,6.0,70,0.00,,---,0.00,VWS V14.01,2013-05-23 19:40:00,
2013-05-23 14:45:00,86.0,73.8,29.98,East,91,3.0,6.0,67,0.00,,---,0.00,VWS V14.01,2013-05-23 19:45:00,
2013-05-23 14:50:00,86.4,74.6,29.98,ESE,105,5.0,7.0,68,0.00,,---,0.00,VWS V14.01,2013-05-23 19:50:00,
2013-05-23 14:55:00,87.1,75.3,29.98,NW,314,1.0,7.0,68,0.00,,---,0.00,VWS V14.01,2013-05-23 19:55:00,
2013-05-23 15:00:00,87.0,74.3,29.98,NNE,30,1.0,7.0,66,0.00,,---,0.00,VWS V14.01,2013-05-23 20:00:00,
2013-05-23 15:05:00,87.2,74.9,29.97,West,266,0.0,6.0,67,0.00,,---,0.00,VWS V14.01,2013-05-23 20:05:00,
2013-05-23 15:10:00,86.4,74.2,29.97,ESE,111,3.0,6.0,67,0.00,,---,0.00,VWS V14.01,2013-05-23 20:10:00,
2013-05-23 15:15:00,86.7,75.3,29.97,ENE,77,2.0,6.0,69,0.00,,---,0.00,VWS V14.01,2013-05-23 20:15:00,
2013-05-23 15:20:00,87.2,74.5,29.96,NE,53,1.0,6.0,66,0.00,,---,0.00,VWS V14.01,2013-05-23 20:20:00,
2013-05-23 15:25:00,87.3,74.6,29.96,SE,133,3.0,6.0,66,0.00,,---,0.00,VWS V14.01,2013-05-23 20:25:00,
2013-05-23 15:30:00,87.3,75.0,29.96,East,91,6.0,7.0,67,0.00,,---,0.00,VWS V14.01,2013-05-23 20:30:00,
2013-05-23 15:35:00,87.2,74.0,29.96,SE,132,0.0,5.0,65,0.00,,---,0.00,VWS V14.01,2013-05-23 20:35:00,
2013-05-23 15:40:00,86.9,74.2,29.96,ENE,77,3.0,5.0,66,0.00,,---,0.00,VWS V14.01,2013-05-23 20:40:00,
2013-05-23 15:45:00,87.2,74.9,29.96,SE,124,1.0,5.0,67,0.00,,---,0.00,VWS V14.01,2013-05-23 20:45:00,
2013-05-23 15:50:00,88.5,74.8,29.96,ESE,117,1.0,5.0,64,0.00,,---,0.00,VWS V14.01,2013-05-23 20:50:00,
2013-05-23 15:55:00,89.2,75.4,29.95,SE,127,0.0,5.0,64,0.00,,---,0.00,VWS V14.01,2013-05-23 20:55:00,
2013-05-23 16:00:00,90.2,74.9,29.95,NW,319,0.0,5.0,61,0.00,,---,0.00,VWS V14.01,2013-05-23 21:00:00,
2013-05-23 16:05:00,90.0,75.7,29.96,SSE,150,3.0,5.0,63,0.00,,---,0.00,VWS V14.01,2013-05-23 21:05:00,
2013-05-23 16:10:00,88.6,74.9,29.95,ENE,77,3.0,6.0,64,0.00,,---,0.00,VWS V14.01,2013-05-23 21:10:00,
2013-05-23 16:15:00,88.1,73.9,29.95,ESE,116,2.0,6.0,63,0.00,,---,0.00,VWS V14.01,2013-05-23 21:15:00,
2013-05-23 16:20:00,87.8,73.6,29.95,ESE,120,2.0,6.0,63,0.00,,---,0.00,VWS V14.01,2013-05-23 21:20:00,
2013-05-23 16:25:00,87.7,74.0,29.95,SE,124,2.0,6.0,64,0.00,,---,0.00,VWS V14.01,2013-05-23 21:25:00,
2013-05-23 16:30:00,88.1,73.4,29.95,SE,129,3.0,6.0,62,0.00,,---,0.00,VWS V14.01,2013-05-23 21:30:00,
2013-05-23 16:35:00,87.5,73.8,29.95,ESE,107,1.0,5.0,64,0.00,,---,0.00,VWS V14.01,2013-05-23 21:35:00,
2013-05-23 16:40:00,88.0,73.4,29.95,ESE,111,1.0,7.0,62,0.00,,---,0.00,VWS V14.01,2013-05-23 21:40:00,
2013-05-23 16:45:00,87.7,73.6,29.94,East,95,3.0,7.0,63,0.00,,---,0.00,VWS V14.01,2013-05-23 21:45:00,
2013-05-23 16:50:00,87.5,72.4,29.94,ESE,105,3.0,7.0,61,0.00,,---,0.00,VWS V14.01,2013-05-23 21:50:00,
2013-05-23 16:55:00,87.4,72.3,29.94,ESE,106,6.0,7.0,61,0.00,,---,0.00,VWS V14.01,2013-05-23 21:55:00,
2013-05-23 17:00:00,87.0,73.4,29.93,East,101,3.0,7.0,64,0.00,,---,0.00,VWS V14.01,2013-05-23 22:00:00,
2013-05-23 17:05:00,87.0,72.9,29.93,ESE,112,3.0,4.0,63,0.00,,---,0.00,VWS V14.01,2013-05-23 22:05:00,
2013-05-23 17:10:00,87.0,71.9,29.93,ESE,112,4.0,5.0,61,0.00,,---,0.00,VWS V14.01,2013-05-23 22:10:00,
2013-05-23 17:15:00,87.2,73.1,29.93,ENE,69,1.0,5.0,63,0.00,,---,0.00,VWS V14.01,2013-05-23 22:15:00,
2013-05-23 17:20:00,88.0,72.4,29.93,East,89,4.0,6.0,60,0.00,,---,0.00,VWS V14.01,2013-05-23 22:20:00,
2013-05-23 17:25:00,87.2,71.1,29.93,ESE,121,4.0,8.0,59,0.00,,---,0.00,VWS V14.01,2013-05-23 22:25:00,
2013-05-23 17:30:00,86.8,71.3,29.93,East,92,5.0,8.0,60,0.00,,---,0.00,VWS V14.01,2013-05-23 22:30:00,
2013-05-23 17:35:00,86.8,72.2,29.93,East,100,5.0,5.0,62,0.00,,---,0.00,VWS V14.01,2013-05-23 22:35:00,
2013-05-23 17:40:00,86.5,71.9,29.93,ESE,111,5.0,7.0,62,0.00,,---,0.00,VWS V14.01,2013-05-23 22:40:00,
2013-05-23 17:45:00,86.5,73.3,29.93,ENE,76,1.0,7.0,65,0.00,,---,0.00,VWS V14.01,2013-05-23 22:45:00,
2013-05-23 17:50:00,86.6,70.6,29.93,ESE,109,4.0,7.0,59,0.00,,---,0.00,VWS V14.01,2013-05-23 22:50:00,
2013-05-23 17:55:00,86.4,71.8,29.94,East,101,6.0,7.0,62,0.00,,---,0.00,VWS V14.01,2013-05-23 22:55:00,
2013-05-23 18:00:00,86.5,72.4,29.93,East,84,0.0,8.0,63,0.00,,---,0.00,VWS V14.01,2013-05-23 23:00:00,
2013-05-23 18:05:00,87.4,73.7,29.93,NNE,19,2.0,4.0,64,0.00,,---,0.00,VWS V14.01,2013-05-23 23:05:00,
2013-05-23 18:10:00,87.4,72.3,29.93,ESE,102,4.0,6.0,61,0.00,,---,0.00,VWS V14.01,2013-05-23 23:10:00,
2013-05-23 18:15:00,86.7,72.6,29.93,East,101,6.0,7.0,63,0.00,,---,0.00,VWS V14.01,2013-05-23 23:15:00,
2013-05-23 18:20:00,86.3,73.6,29.93,East,97,0.0,7.0,66,0.00,,---,0.00,VWS V14.01,2013-05-23 23:20:00,
2013-05-23 18:25:00,86.5,72.9,29.93,East,100,2.0,7.0,64,0.00,,---,0.00,VWS V14.01,2013-05-23 23:25:00,
2013-05-23 18:30:00,86.1,73.4,29.92,SE,131,2.0,7.0,66,0.00,,---,0.00,VWS V14.01,2013-05-23 23:30:00,
2013-05-23 18:35:00,85.6,74.3,29.92,East,86,4.0,5.0,69,0.00,,---,0.00,VWS V14.01,2013-05-23 23:35:00,
2013-05-23 18:40:00,85.3,73.1,29.92,ESE,103,2.0,5.0,67,0.00,,---,0.00,VWS V14.01,2013-05-23 23:40:00,
2013-05-23 18:45:00,85.2,73.4,29.92,East,91,2.0,6.0,68,0.00,,---,0.00,VWS V14.01,2013-05-23 23:45:00,
2013-05-23 18:50:00,85.2,73.0,29.93,NE,53,3.0,6.0,67,0.00,,---,0.00,VWS V14.01,2013-05-23 23:50:00,
2013-05-23 18:55:00,85.3,73.6,29.93,East,87,2.0,6.0,68,0.00,,---,0.00,VWS V14.01,2013-05-23 23:55:00,
2013-05-23 19:00:00,85.0,73.7,29.93,ENE,75,3.0,6.0,69,0.00,,---,0.00,VWS V14.01,2013-05-24 00:00:00,
2013-05-23 19:05:00,84.7,73.4,29.93,ENE,74,1.0,4.0,69,0.00,,---,0.00,VWS V14.01,2013-05-24 00:05:00,
2013-05-23 19:10:00,84.4,74.0,29.93,ENE,70,2.0,4.0,71,0.00,,---,0.00,VWS V14.01,2013-05-24 00:10:00,
2013-05-23 19:15:00,84.1,74.1,29.93,East,80,1.0,4.0,72,0.00,,---,0.00,VWS V14.01,2013-05-24 00:15:00,
2013-05-23 19:20:00,83.7,73.3,29.93,East,84,2.0,4.0,71,0.00,,---,0.00,VWS V14.01,2013-05-24 00:20:00,
2013-05-23 19:25:00,83.4,73.8,29.93,East,94,2.0,4.0,73,0.00,,---,0.00,VWS V14.01,2013-05-24 00:25:00,
2013-05-23 19:30:00,83.2,73.7,29.93,East,79,0.0,4.0,73,0.00,,---,0.00,VWS V14.01,2013-05-24 00:30:00,
2013-05-23 19:35:00,83.0,73.5,29.94,East,86,2.0,3.0,73,0.00,,---,0.00,VWS V14.01,2013-05-24 00:35:00,
2013-05-23 19:40:00,82.6,73.9,29.94,ENE,75,2.0,3.0,75,0.00,,---,0.00,VWS V14.01,2013-05-24 00:40:00,
2013-05-23 19:45:00,82.4,73.7,29.94,East,79,2.0,3.0,75,0.00,,---,0.00,VWS V14.01,2013-05-24 00:45:00,
2013-05-23 19:50:00,82.3,73.6,29.95,East,94,1.0,3.0,75,0.00,,---,0.00,VWS V14.01,2013-05-24 00:50:00,
2013-05-23 19:55:00,82.2,73.5,29.95,East,81,0.0,3.0,75,0.00,,---,0.00,VWS V14.01,2013-05-24 00:55:00,
2013-05-23 20:00:00,82.1,73.4,29.95,East,86,0.0,3.0,75,0.00,,---,0.00,VWS V14.01,2013-05-24 01:00:00,
2013-05-23 20:05:00,82.1,73.4,29.96,East,81,0.0,1.0,75,0.00,,---,0.00,VWS V14.01,2013-05-24 01:05:00,
2013-05-23 20:10:00,81.9,73.6,29.96,East,79,0.0,1.0,76,0.00,,---,0.00,VWS V14.01,2013-05-24 01:10:00,
2013-05-23 20:15:00,81.6,73.3,29.96,East,82,0.0,1.0,76,0.00,,---,0.00,VWS V14.01,2013-05-24 01:15:00,
2013-05-23 20:20:00,81.4,73.1,29.96,East,81,1.0,1.0,76,0.00,,---,0.00,VWS V14.01,2013-05-24 01:20:00,
2013-05-23 20:25:00,81.2,73.7,29.96,East,85,1.0,2.0,78,0.00,,---,0.00,VWS V14.01,2013-05-24 01:25:00,
2013-05-23 20:30:00,81.0,73.9,29.96,East,84,1.0,2.0,79,0.00,,---,0.00,VWS V14.01,2013-05-24 01:30:00,
2013-05-23 20:35:00,80.6,73.5,29.96,East,94,1.0,2.0,79,0.00,,---,0.00,VWS V14.01,2013-05-24 01:35:00,
2013-05-23 20:40:00,80.3,73.2,29.96,East,98,1.0,2.0,79,0.00,,---,0.00,VWS V14.01,2013-05-24 01:40:00,
2013-05-23 20:45:00,80.1,73.4,29.96,East,85,0.0,2.0,80,0.00,,---,0.00,VWS V14.01,2013-05-24 01:45:00,
2013-05-23 20:50:00,79.9,73.2,29.96,East,79,2.0,2.0,80,0.00,,---,0.00,VWS V14.01,2013-05-24 01:50:00,
2013-05-23 20:55:00,79.9,73.2,29.96,East,82,2.0,3.0,80,0.00,,---,0.00,VWS V14.01,2013-05-24 01:55:00,
2013-05-23 21:00:00,79.7,73.0,29.97,East,84,2.0,3.0,80,0.00,,---,0.00,VWS V14.01,2013-05-24 02:00:00,
2013-05-23 21:05:00,79.6,73.3,29.97,ENE,77,2.0,2.0,81,0.00,,---,0.00,VWS V14.01,2013-05-24 02:05:00,
2013-05-23 21:10:00,79.5,72.8,29.97,East,80,0.0,2.0,80,0.00,,---,0.00,VWS V14.01,2013-05-24 02:10:00,
2013-05-23 21:15:00,79.4,72.7,29.97,ENE,77,1.0,2.0,80,0.00,,---,0.00,VWS V14.01,2013-05-24 02:15:00,
2013-05-23 21:20:00,79.3,73.0,29.97,East,86,2.0,2.0,81,0.00,,---,0.00,VWS V14.01,2013-05-24 02:20:00,
2013-05-23 21:25:00,79.2,72.9,29.98,East,82,0.0,2.0,81,0.00,,---,0.00,VWS V14.01,2013-05-24 02:25:00,
2013-05-23 21:30:00,79.2,72.9,29.98,East,93,0.0,2.0,81,0.00,,---,0.00,VWS V14.01,2013-05-24 02:30:00,
2013-05-23 21:35:00,78.9,72.9,29.99,East,94,0.0,1.0,82,0.00,,---,0.00,VWS V14.01,2013-05-24 02:35:00,
2013-05-23 21:40:00,78.2,72.6,29.99,East,93,0.0,1.0,83,0.00,,---,0.00,VWS V14.01,2013-05-24 02:40:00,
2013-05-23 21:45:00,77.7,72.1,30.00,East,93,0.0,1.0,83,0.00,,---,0.00,VWS V14.01,2013-05-24 02:45:00,
2013-05-23 21:50:00,77.4,72.2,30.00,East,94,0.0,1.0,84,0.00,,---,0.00,VWS V14.01,2013-05-24 02:50:00,
2013-05-23 21:55:00,77.1,72.2,30.00,East,94,0.0,1.0,85,0.00,,---,0.00,VWS V14.01,2013-05-24 02:55:00,
2013-05-23 22:00:00,76.7,71.9,30.00,NNE,19,1.0,1.0,85,0.00,,---,0.00,VWS V14.01,2013-05-24 03:00:00,
2013-05-23 22:05:00,76.3,71.8,30.01,North,356,0.0,2.0,86,0.00,,---,0.00,VWS V14.01,2013-05-24 03:05:00,
2013-05-23 22:10:00,76.1,71.9,30.01,North,355,0.0,2.0,87,0.00,,---,0.00,VWS V14.01,2013-05-24 03:10:00,
2013-05-23 22:15:00,76.1,71.9,30.01,NNE,21,0.0,2.0,87,0.00,,---,0.00,VWS V14.01,2013-05-24 03:15:00,
2013-05-23 22:20:00,76.5,72.0,30.01,North,349,0.0,2.0,86,0.00,,---,0.00,VWS V14.01,2013-05-24 03:20:00,
2013-05-23 22:25:00,76.6,72.1,30.02,NNW,348,1.0,2.0,86,0.00,,---,0.00,VWS V14.01,2013-05-24 03:25:00,
2013-05-23 22:30:00,76.6,72.1,30.02,NE,56,0.0,2.0,86,0.00,,---,0.00,VWS V14.01,2013-05-24 03:30:00,
2013-05-23 22:35:00,76.6,72.1,30.02,NE,56,1.0,1.0,86,0.00,,---,0.00,VWS V14.01,2013-05-24 03:35:00,
2013-05-23 22:40:00,76.6,72.4,30.02,NE,54,0.0,1.0,87,0.00,,---,0.00,VWS V14.01,2013-05-24 03:40:00,
2013-05-23 22:45:00,76.5,72.0,30.02,NE,53,0.0,1.0,86,0.00,,---,0.00,VWS V14.01,2013-05-24 03:45:00,
2013-05-23 22:50:00,76.6,72.4,30.02,NE,53,0.0,1.0,87,0.00,,---,0.00,VWS V14.01,2013-05-24 03:50:00,
2013-05-23 22:55:00,76.5,72.3,30.02,NNE,14,0.0,1.0,87,0.00,,---,0.00,VWS V14.01,2013-05-24 03:55:00,
2013-05-23 23:00:00,76.4,72.2,30.02,NNE,14,0.0,1.0,87,0.00,,---,0.00,VWS V14.01,2013-05-24 04:00:00,
2013-05-23 23:01:00,76.3,72.2,30.02,NNE,15,0.0,0.0,87,0.00,,---,0.00,VWS V14.01,2013-05-24 04:01:00,
2013-05-23 23:06:00,76.3,71.8,30.02,NNE,27,0.0,2.0,86,0.00,,---,0.00,VWS V14.01,2013-05-24 04:06:00,
2013-05-23 23:11:00,76.6,71.8,30.02,NNE,27,0.0,2.0,85,0.00,,---,0.00,VWS V14.01,2013-05-24 04:11:00,
2013-05-23 23:16:00,76.7,71.9,30.02,East,95,0.0,2.0,85,0.00,,---,0.00,VWS V14.01,2013-05-24 04:16:00,
2013-05-23 23:21:00,76.6,72.1,30.02,East,82,1.0,2.0,86,0.00,,---,0.00,VWS V14.01,2013-05-24 04:21:00,
2013-05-23 23:26:00,76.9,72.7,30.01,East,96,3.0,4.0,87,0.00,,---,0.00,VWS V14.01,2013-05-24 04:26:00,
2013-05-23 23:31:00,77.0,72.8,30.00,East,82,2.0,2.0,87,0.00,,---,0.00,VWS V14.01,2013-05-24 04:31:00,
2013-05-23 23:36:00,77.0,72.8,30.01,East,98,2.0,3.0,87,0.00,,---,0.00,VWS V14.01,2013-05-24 04:36:00,
2013-05-23 23:41:00,76.9,72.4,30.00,ESE,113,0.0,4.0,86,0.00,,---,0.00,VWS V14.01,2013-05-24 04:41:00,
2013-05-23 23:46:00,76.8,72.3,30.00,ESE,117,1.0,4.0,86,0.00,,---,0.00,VWS V14.01,2013-05-24 04:46:00,
2013-05-23 23:51:00,76.7,72.2,30.00,East,95,1.0,4.0,86,0.00,,---,0.00,VWS V14.01,2013-05-24 04:51:00,
2013-05-23 23:56:00,76.6,72.4,30.00,East,92,2.0,4.0,87,0.00,,---,0.00,VWS V14.01,2013-05-24 04:56:00,